Tracking 22441 objects as of 1-Mar-2021
HD Live streaming from Space Station
objects crossing your sky now

SL-8 DEB

Track SL-8 DEB now!
10-day predictions


NORAD ID: 27769
Int'l Code: 2002-054E
Perigee: 654.1 km
Apogee: 706.4 km
Inclination: 98.3 °
Period: 98.2 minutes
Semi major axis: 7051 km
RCS: 0.0082 m2 (small)
Launch date: November 28, 2002
Source: Commonwealth of Independent States (former USSR) (CIS)
Launch site: PLESETSK MISSILE AND SPACE COMPLEX (PKMTR)

Note: This is SATELLITE DEBRIS
aabbcc
Your satellite tracking list
Your tracking list is empty




NASA's NSSDC Master Catalog

Two Line Element Set (TLE):
1 27769U 02054E   21059.93026116  .00000367  00000-0  75125-4 0  9997
2 27769  98.2841 227.1037 0037107  80.7776 279.7622 14.66240144973040
Source of the keplerian elements: AFSPC